This demonstration page uses our WeatherBlox Daily Observations layout. Learn more.

Left ArrowRight Arrow

40.92501, -98.34201

Hourly Observations for July 24, 2021

Temp ( °F °C ) Dew Point ( °F °C ) Humidity (%) Winds ( mph kmh ) Pressure ( in mb ) Visibility ( mi km ) Precip ( " mm )
12:53 am 00:53 Clear 75 23.9 66 18.9 74 74 S 8 13 29.91 1013 10 16 0.00 0.00
1:53 am 01:53 Clear 73 22.8 66 18.9 79 79 S 8 13 29.90 1012 9 14 0.00 0.00
2:53 am 02:53 Clear 72 22.2 65 18.3 79 79 S 8 13 29.89 1012 8 13 0.00 0.00
3:53 am 03:53 Clear 73 22.8 65 18.3 76 76 S 8 13 29.89 1012 10 16 0.00 0.00
4:53 am 04:53 Clear 73 22.8 64 17.8 74 74 NW 7 11 29.90 1013 10 16 0.00 0.00
5:53 am 05:53 Clear 72 22.2 64 17.8 76 76 SSW 6 9 29.90 1012 10 16 0.00 0.00
6:53 am 06:53 Sunny 74 23.3 63 17.2 69 69 SSW 8 13 29.89 1012 10 16 0.00 0.00
7:53 am 07:53 Mostly Cloudy 76 24.4 64 17.8 67 67 WSW 5 7 29.92 1013 10 16 0.00 0.00
8:53 am 08:53 Partly Cloudy 75 23.9 65 18.3 71 71 NW 3 6 29.95 1014 9 14 0.00 0.00
9:53 am 09:53 Mostly Sunny 78 25.6 66 18.9 67 67 SW 7 11 29.95 1014 10 16 0.00 0.00
10:53 am 10:53 Partly Cloudy 80 26.7 65 18.3 60 60 WNW 8 13 29.97 1015 10 16 0.00 0.00
11:53 am 11:53 Mostly Cloudy 79 26.1 67 19.4 67 67 NE 6 9 29.98 1015 10 16 0.00 0.00
12:53 pm 12:53 Partly Cloudy 81 27.2 68 20 65 65 ENE 8 13 29.98 1015 9 14 0.00 0.00
1:53 pm 13:53 Partly Cloudy 82 27.8 69 20.6 65 65 NNE 7 11 29.99 1016 10 16 0.00 0.00
2:53 pm 14:53 Mostly Sunny 85 29.4 71 21.7 63 63 ENE 7 11 29.99 1016 10 16 0.00 0.00
3:53 pm 15:53 Partly Cloudy 87 30.6 70 21.1 57 57 E 10 17 29.99 1016 10 16 0.00 0.00
4:53 pm 16:53 Mostly Cloudy 88 31.1 71 21.7 57 57 E 10 17 29.98 1015 10 16 0.00 0.00
5:53 pm 17:53 Partly Cloudy 88 31.1 70 21.1 55 55 ENE 7 11 29.98 1015 10 16 0.00 0.00
6:53 pm 18:53 Mostly Sunny 86 30 70 21.1 59 59 E 9 15 29.98 1015 10 16 0.00 0.00
7:53 pm 19:53 Mostly Sunny 84 28.9 74 23.3 72 72 ENE 5 7 29.98 1015 10 16 0.00 0.00
8:53 pm 20:53 Sunny 82 27.8 73 22.8 74 74 ENE 6 9 29.98 1015 8 13 0.00 0.00
9:53 pm 21:53 Partly Cloudy 78 25.6 73 22.8 85 85 E 3 6 30.00 1016 8 13 0.00 0.00
10:53 pm 22:53 Mostly Clear with Mist and Fog 76 24.4 72 22.2 88 88 NE 5 7 30.01 1016 6 10 0.00 0.00
11:53 pm 23:53 Clear with Mist and Fog 74 23.3 71 21.7 91 91 Calm 30.03 1017 5 8 0.00 0.00

Powered by AerisWeather